STARLINK-34815, 65099

Orbit data source: Space-Track

STARLINK-34815, 65099 is a payload satellite owned by SpaceX/Seattle (US) in LEO that was launched on Mon, 04 Aug 2025 UTC via an FALCON 9 launch vehicle from the Air Force Eastern Test Range (AFETR). Payload-class satellites include a variety of spacecraft equipped with specific instruments for various scientific and technological missions. These include communications satellites like Starlink; space stations such as the ISS; scientific satellites like the Hubble; Earth observation satellites from companies like Planet Labs, Umbra, and HawkEye 360; GPS; miniature CubeSats for education and research; and military/defense satellites.

Loading next visibility...
Identifier
65099, 2025-167X
Orbit
LEO
Country
Flag of USUS
Related business
Manufacturer
SpaceX/Seattle
Mission
Operational Commercial Communications
Bus & Motor
STARLINK V2MO, Unknown motor
Mass
575 kg wet, ~530 kg dry
Launch date (UTC)
2025-08-04 (9 months ago)
Launch vehicle
FALCON 9
Launch site
Air Force Eastern Test Range (AFETR)
Object type
Payload
Rocket body
Debris
Shape & HBR
Box + 2 Pan, 17.7 m
Radar Cross Section
36.964 m², Large (>1 m²)

Expand to show TLE details & history
Last TLE update: 12 hours ago

TLE from 12 hours ago
0 STARLINK-34815
1 65099U 25167X   26127.20623681  .00015485  00000-0  46863-3 0  9999
2 65099  53.1610 114.5233 0000662  96.3960 263.7118 15.34389317 42449
Epoch: 2026-05-07T04:56Z
TLE epoch observation values (Epoch: 2026-05-07T04:56:58.860Z)
Latitude
-0.00002°
Longitude
175.22233°
Altitude
463.686 km
Speed
7.636 km/s
True Right ascension
07h 38m 05s
True Declination
0° 00' 00"
Sunlit
Object was in daylight at epoch
Visualization orbit readout
Latitude
Unknown
Longitude
Unknown
Altitude
Unknown
Speed
Unknown
Apparent Right ascension
Unknown
Apparent Declination
Unknown
Sunlit
N/A
Visualization observer readout
Local Sidereal Time
00:46:21
Azimuth
Unknown
Elevation
Unknown
Doppler factor
Unknown
Orbital elements
Apogee altitude
463.445 km
Perigee altitude
462.539 km
Semi-major axis
6,841.129 km
Eccentricity
0.00007
Inclination
53.161°
RAAN
114.5233°
Arg. of periapsis
96.396°
True anomaly
263.70426°
Mean anomaly
263.7118°
Eccentric anomaly
263.70803°
Mean motion
3.83576 °/min
Orbital period
93.85 mins
BSTAR
0.00046863
Loading maneuver chart data...
Computing Atmospheric mass density...
Loading historical data...
Loading historical data...
Loading historical data...
Loading historical data...
Loading historical data...
Loading historical data...
Loading historical data...

Documentation

Showing up to 5 results
|